Wind_Speed
42 42 43 43 43 43 44 44 43 42 42 42 43 43 42 43 42 42 43 43 43 44 44 44 43 44 45 45 45 44 44 44 44 44 45 45 45 46
44 44 44 45 45 44 44 44 45 44 44 43 43 43 44 43 42 43 43 43 43 43 43 43 43 44 45 45 45 46 46 46 46 46 46 48 48 47
46 46 44 45 45 45 45 45 45 45 44 44 43 43 43 43 43 44 43 43 43 43 43 43 44 45 46 46 47 48 48 48 47 47 47 48 48 47
46 46 46 47 46 46 46 46 45 45 45 43 42 42 43 43 44 44 43 43 44 44 44 44 45 45 46 47 47 48 49 49 48 48 48 48 48 48
46 46 47 46 46 46 46 46 45 45 45 44 43 43 44 44 44 43 43 43 44 44 44 45 45 46 47 48 48 48 48 49 48 49 49 49 48 48
46 45 45 46 46 45 45 45 45 45 45 45 45 44 44 44 44 44 44 44 45 45 45 46 46 47 47 49 49 49 48 48 47 47 48 48 48 48
45 45 44 45 46 45 45 44 45 45 46 46 46 45 45 44 45 45 44 45 45 46 45 46 46 46 47 48 48 48 48 48 47 47 47 47 47 48
45 45 44 44 44 44 44 44 44 44 44 45 45 45 45 45 45 44 44 45 46 46 45 45 46 46 46 47 47 47 48 47 47 47 47 47 48 49
45 45 45 44 44 44 44 44 44 44 45 45 45 44 45 45 45 45 45 46 46 46 46 45 45 45 45 46 47 48 48 47 48 47 47 48 49 50
44 44 44 44 45 45 44 44 45 45 45 45 45 44 44 45 45 45 46 46 46 46 46 45 44 43 44 44 46 47 47 47 47 47 48 49 50 50
43 43 44 44 45 45 45 45 45 45 45 45 45 45 45 45 46 46 46 46 46 45 45 45 44 44 43 44 44 45 46 47 48 48 48 48 49 49
42 43 44 45 45 45 45 45 44 44 44 45 44 44 44 45 45 46 45 44 44 44 43 44 44 45 44 44 44 45 46 47 47 48 48 48 48 48
41 42 43 43 44 44 44 44 44 44 44 44 44 44 44 45 45 44 44 44 44 44 43 44 44 44 45 44 44 45 46 46 47 47 47 48 48 48
41 41 41 42 42 42 43 43 43 43 43 42 42 43 43 42 42 42 42 42 42 42 41 42 42 43 43 43 44 44 44 45 45 46 47 47 48 48
40 40 41 41 41 41 41 41 41 41 41 41 41 41 41 40 40 40 40 41 41 40 40 41 41 41 41 42 42 42 43 43 44 45 45 46 47 47
40 40 40 40 40 39 39 39 39 39 39 39 39 39 38 39 39 39 39 39 39 39 40 40 41 40 40 40 41 41 42 42 42 42 42 43 43 44
38 38 37 37 37 37 37 37 37 37 37 37 37 37 37 38 38 38 38 38 38 38 38 38 39 39 39 40 40 40 40 40 40 41 40 40 41 41
37 36 36 35 35 35 35 36 36 36 36 37 36 36 36 36 37 37 37 37 36 37 37 38 38 39 38 39 39 38 38 38 39 39 39 39 39 40
35 34 34 34 34 34 34 34 34 34 35 35 35 35 36 36 36 36 36 35 35 35 35 36 36 37 37 36 36 36 37 37 37 38 38 38 38 39
34 34 34 34 34 34 33 33 33 33 34 34 34 34 34 34 34 34 34 34 34 35 35 35 35 35 35 35 35 35 35 35 35 35 36 36 36 37
33 33 33 33 32 32 32 32 32 32 32 33 33 33 33 33 33 33 33 33 34 34 34 34 34 34 34 34 35 35 35 35 35 35 35 35 35 35
31 31 31 31 31 31 30 30 31 31 31 32 32 32 32 32 32 32 32 32 33 33 34 34 34 34 33 34 34 34 34 34 34 35 35 35 35 35
30 30 30 30 30 30 29 30 30 30 30 31 31 31 31 31 31 31 31 31 32 32 32 32 33 33 33 32 32 32 33 33 33 34 34 34 35 35
Wind_Direction
255 256 257 258 258 260 262 262 263 264 264 265 265 265 265 267 267 268 269 270 271 272 273 273 272 273 274 275 275 276 276 277 277 277 277 278 279 280
256 257 258 258 259 260 262 263 264 266 266 266 265 265 265 266 267 268 270 270 271 272 273 273 273 275 275 275 275 276 276 277 277 277 277 278 278 278
257 258 259 259 260 261 263 265 266 266 267 266 265 265 266 266 267 268 269 269 269 270 271 272 273 274 274 275 275 276 277 277 278 277 277 277 278 278
259 259 259 260 261 263 266 267 266 266 266 265 265 266 266 267 268 269 269 269 269 270 271 273 274 274 274 276 276 277 277 277 278 278 277 277 278 278
260 261 262 263 263 265 266 266 266 265 265 265 266 267 267 267 267 268 269 270 270 271 272 273 274 274 275 276 276 276 277 277 277 277 278 278 278 278
259 260 261 262 264 264 265 265 265 266 266 266 266 268 268 267 267 268 269 270 271 271 272 273 274 275 275 275 275 275 276 277 278 278 279 279 279 279
257 258 260 261 262 263 264 265 265 266 266 266 267 268 268 267 268 269 269 270 271 273 273 274 275 275 276 276 275 276 277 278 278 278 279 279 279 280
258 259 259 261 263 263 264 264 265 266 266 267 267 267 267 267 269 269 270 271 273 273 275 275 276 276 276 276 276 276 277 277 277 278 278 278 279 280
257 258 259 261 263 264 264 264 265 266 267 267 267 266 265 267 269 270 270 272 274 275 276 276 276 277 277 276 276 277 277 276 277 277 278 278 279 280
258 258 260 261 262 263 264 265 265 266 267 267 266 265 265 267 269 270 271 272 273 274 275 276 276 277 277 277 277 277 277 277 277 277 278 279 280 281
258 259 260 261 263 264 265 265 266 267 267 268 266 266 267 268 270 271 272 273 274 274 274 275 275 277 277 277 277 277 277 277 278 278 279 280 281 281
259 259 260 261 262 264 264 265 266 266 267 267 267 268 268 270 271 272 273 274 275 274 275 276 277 278 278 277 276 276 276 277 278 278 280 281 282 283
260 260 261 262 262 263 263 264 265 266 267 266 266 267 269 270 271 272 273 274 275 275 275 276 277 278 279 278 277 276 277 278 278 279 280 282 283 284
260 261 261 262 263 263 264 264 265 267 267 266 267 268 269 270 270 271 272 273 274 274 275 276 277 279 279 278 277 276 277 278 279 280 281 282 283 284
260 261 261 262 263 263 263 264 265 266 266 267 268 268 269 269 269 270 271 272 273 274 275 276 277 278 279 278 278 278 279 280 281 282 282 283 284 284
260 260 261 261 262 262 263 263 264 265 266 266 267 267 267 267 268 270 271 273 274 274 276 277 277 278 278 278 279 280 281 282 282 283 283 283 284 286
260 259 260 260 260 261 262 263 263 264 265 266 266 266 267 268 269 271 272 273 274 275 276 277 277 278 279 279 281 282 282 282 282 283 283 285 287 288
260 260 259 259 259 261 262 262 262 262 263 264 265 266 267 268 270 272 273 274 274 276 277 277 277 278 279 279 281 282 282 283 284 284 285 286 288 289
259 259 259 259 259 261 261 262 262 262 263 264 265 267 268 269 270 272 273 274 275 277 277 277 278 278 278 279 280 281 282 283 284 285 286 287 288 290
258 258 259 259 259 261 262 262 263 263 263 264 266 267 268 269 270 271 273 274 275 277 277 278 279 279 279 278 279 280 281 282 283 285 287 289 290 292
257 258 258 258 258 260 262 262 263 263 264 264 266 268 269 270 271 271 273 274 276 276 277 278 279 279 279 279 279 281 281 282 284 285 287 289 290 292
255 256 257 256 257 259 260 261 262 263 264 265 266 268 269 270 271 272 273 274 275 276 277 278 279 279 280 280 280 281 282 283 284 287 289 291 292 293
254 255 256 255 256 257 259 260 261 263 264 265 266 267 268 270 271 272 273 274 276 277 278 279 279 279 280 281 281 282 283 284 287 289 291 293 295 295
Height
5697 5699 5701 5703 5706 5707 5709 5710 5712 5714 5716 5717 5718 5718 5718 5719 5719 5720 5720 5721 5721 5721 5721 5721 5721 5720 5720 5719 5719 5719 5718 5717 5716 5715 5714 5713 5713 5712
5685 5688 5690 5692 5694 5696 5697 5699 5700 5701 5703 5705 5706 5706 5707 5707 5708 5708 5709 5709 5709 5709 5709 5709 5709 5708 5708 5707 5707 5707 5706 5705 5704 5703 5702 5701 5701 5700
5674 5676 5679 5681 5682 5684 5685 5687 5688 5689 5690 5693 5693 5694 5695 5695 5696 5697 5697 5697 5698 5697 5697 5697 5697 5696 5696 5695 5695 5694 5693 5692 5691 5691 5690 5689 5687 5687
5662 5664 5666 5668 5670 5672 5673 5674 5675 5676 5678 5680 5681 5682 5683 5684 5684 5685 5685 5685 5686 5686 5686 5685 5685 5684 5683 5683 5682 5681 5680 5679 5678 5677 5677 5676 5675 5673
5650 5652 5654 5656 5657 5659 5660 5661 5663 5664 5665 5667 5669 5670 5671 5671 5672 5673 5673 5673 5673 5674 5673 5673 5672 5671 5671 5670 5669 5668 5667 5667 5665 5664 5663 5662 5661 5660
5637 5639 5641 5643 5645 5646 5648 5649 5650 5652 5653 5654 5656 5657 5658 5659 5659 5660 5661 5661 5661 5661 5661 5660 5659 5659 5658 5657 5656 5655 5654 5653 5652 5651 5649 5648 5647 5646
5625 5627 5629 5631 5632 5634 5635 5637 5638 5639 5640 5642 5643 5644 5645 5646 5647 5647 5648 5648 5649 5648 5648 5647 5647 5646 5645 5644 5642 5642 5641 5640 5639 5638 5636 5635 5634 5633
5612 5614 5616 5618 5620 5621 5623 5624 5625 5627 5628 5629 5631 5632 5633 5633 5634 5634 5635 5636 5636 5637 5635 5635 5633 5633 5631 5630 5629 5628 5627 5626 5625 5624 5624 5622 5621 5619
5599 5601 5603 5605 5607 5609 5610 5611 5613 5614 5615 5617 5618 5619 5620 5621 5621 5622 5622 5622 5622 5622 5622 5622 5620 5619 5618 5617 5615 5614 5614 5613 5612 5611 5610 5609 5607 5606
5586 5589 5591 5593 5594 5596 5597 5599 5600 5601 5602 5603 5605 5606 5606 5607 5608 5608 5608 5608 5609 5609 5608 5608 5607 5606 5605 5603 5602 5601 5600 5600 5599 5598 5597 5595 5594 5592
5574 5576 5578 5580 5581 5583 5585 5586 5588 5588 5589 5590 5591 5592 5593 5594 5594 5594 5595 5595 5595 5595 5594 5594 5594 5593 5592 5591 5589 5588 5587 5586 5585 5584 5583 5581 5580 5578
5562 5564 5565 5567 5568 5570 5572 5573 5575 5576 5576 5577 5578 5580 5580 5581 5581 5581 5581 5581 5581 5582 5581 5580 5580 5579 5579 5579 5577 5575 5574 5573 5572 5571 5569 5568 5566 5564
5550 5552 5553 5554 5556 5557 5559 5561 5562 5563 5564 5564 5566 5566 5567 5567 5567 5567 5567 5567 5567 5568 5567 5566 5566 5565 5564 5565 5564 5562 5561 5559 5558 5557 5555 5554 5552 5549
5538 5540 5541 5542 5543 5545 5547 5548 5549 5550 5551 5552 5553 5554 5554 5554 5554 5554 5554 5554 5554 5554 5554 5553 5553 5552 5551 5551 5550 5549 5548 5546 5545 5544 5542 5540 5538 5535
5526 5528 5529 5530 5532 5533 5535 5536 5537 5538 5539 5540 5541 5542 5542 5542 5542 5542 5542 5542 5542 5542 5541 5541 5540 5539 5538 5538 5537 5536 5535 5534 5532 5530 5528 5526 5524 5521
5514 5516 5517 5519 5520 5522 5523 5524 5525 5526 5527 5528 5529 5530 5530 5530 5531 5531 5531 5531 5531 5530 5529 5529 5528 5527 5526 5525 5524 5524 5522 5521 5520 5517 5515 5513 5510 5508
5503 5505 5506 5507 5509 5510 5512 5513 5514 5515 5516 5517 5518 5519 5519 5519 5520 5520 5520 5520 5520 5519 5518 5517 5516 5515 5514 5514 5513 5512 5510 5509 5507 5505 5503 5501 5499 5496
5492 5494 5495 5497 5498 5500 5501 5502 5503 5504 5505 5506 5507 5507 5508 5509 5509 5509 5509 5508 5508 5508 5507 5506 5505 5504 5504 5502 5501 5500 5499 5497 5496 5493 5491 5490 5487 5484
5481 5483 5485 5486 5488 5489 5490 5491 5492 5493 5494 5495 5496 5497 5497 5498 5498 5498 5498 5498 5497 5497 5496 5495 5494 5493 5493 5492 5490 5489 5488 5486 5484 5482 5480 5478 5476 5473
5471 5473 5474 5476 5477 5479 5480 5481 5482 5483 5484 5485 5486 5486 5487 5487 5487 5487 5487 5487 5487 5486 5486 5485 5484 5483 5482 5481 5480 5479 5477 5475 5474 5472 5470 5467 5465 5462
5461 5462 5464 5465 5467 5468 5470 5471 5472 5473 5474 5475 5476 5476 5477 5477 5477 5477 5477 5477 5476 5476 5475 5475 5473 5472 5471 5470 5470 5468 5467 5465 5463 5461 5459 5457 5455 5452
5451 5452 5454 5455 5457 5458 5460 5461 5462 5463 5464 5465 5466 5466 5467 5467 5467 5467 5467 5467 5466 5466 5465 5464 5463 5462 5461 5460 5459 5458 5457 5455 5452 5450 5449 5447 5444 5442
5441 5443 5444 5446 5447 5449 5450 5452 5453 5454 5455 5455 5456 5456 5457 5457 5457 5457 5457 5457 5456 5456 5455 5454 5453 5452 5451 5450 5449 5448 5446 5445 5443 5441 5439 5436 5434 5432